Terminal Aerodrome Forecast
Issued by NWS

Home | Current Version | Previous Version | Text Only | Print | Product List | Glossary On
Versions: 1 2 3 4 5 6 7 8 9 10 11 12 13 14 15 16 17 18 19 20 21 22 23 24 25
000
FTUS41 KBTV 291700
TAFPBG
TAF
KPBG 291725Z 2918/3018 12004KT P6SM SCT035
     FM292300 VRB03KT P6SM SCT120
     FM301300 16012G19KT P6SM SCT030 BKN100=

USA.gov is the U.S. government's official web portal to all federal, state and local government web resources and services.